Location: Cornospital
(48.0620°N, 3.3837°W)
Time: 16:42:12
(UTC+00:00)

Lacrosse 5 - Pass Details

Date: 17 June 2021
Orbit: 715 x 724 km, 57.0° (Epoch: 28 July)

Event Time Altitude Azimuth Distance (km) Brightness Sun altitude
Rises 21:54:00 0° 298° (WNW) 3,126 6.3 -11.9°
Reaches altitude 10° 21:56:57 10° 282° (WNW) 2,203 5.0 -12.1°
Maximum altitude 22:00:30 19° 237° (WSW) 1,650 3.7 -12.5°
Drops below altitude 10° 22:04:03 10° 192° (SSW) 2,197 3.9 -12.8°
Enters shadow 22:04:08 10° 191° (S) 2,220 4.0 -12.8°
